Location: Unspecified
(52.4292°N, 19.3359°E)
Time: 09:27:45
(UTC+02:00)

Tiros 1 - Pass Details

Date: 18 May 2024
Orbit: 624 x 657 km, 48.4° (Epoch: 22 June)

Event Time Altitude Azimuth Distance (km) Brightness Sun altitude
Rises 13:59:09 0° 213° (SSW) 2,969 11.1 53.8°
Reaches altitude 10° 14:01:53 10° 199° (SSW) 2,062 10.5 53.6°
Maximum altitude 14:05:34 22° 148° (SSE) 1,414 9.4 53.2°
Drops below altitude 10° 14:09:14 10° 97° (E) 2,067 9.7 52.9°
Sets 14:11:59 0° 83° (E) 2,979 10.3 52.7°
